Weather Roundup
Issued by NWS

Home | Current Version | Previous Version | Text Only | Print | Product List | Glossary On
Versions: 1 2 3 4 5 6 7 8 9 10 11 12 13 14 15 16 17 18 19 20 21 22 23 24 25 26 27 28 29 30 31 32 33 34 35 36 37 38 39 40 41 42 43 44 45 46 47 48 49 50
797
NZUS93 KARX 280959
HRRWXR

CURRENT HOURLY OBSERVATIONS ACROSS
MUCH OF THE UPPER MISSISSIPPI VALLEY
NATIONAL WEATHER SERVICE LA CROSSE WI
400 AM CST TUE FEB 28 2017


...SOUTHEAST MINNESOTA...


CITY           SKY/WX    TMP DP  RH WIND       PRES   REMARKS
ROCHESTER      CLOUDY    37  34  89 SE14      29.72F WCI  28
ROCHESTER/MAYO FAIR      38  35  86 E6        29.72F WCI  34
WINONA         CLOUDY    37  34  87 S5        29.77F WCI  34
AUSTIN         CLOUDY    37  32  81 SE9       29.71F WCI  31
ALBERT LEA     CLOUDY    37  34  87 SE6       29.69F WCI  33
DODGE CENTER   NOT AVBL
PRESTON        CLOUDY    39  33  80 SE9       29.74F WCI  32
OWATONNA       CLOUDY    37  34  87 SE10      29.71F WCI  30
FARIBAULT      CLOUDY    32  30  93 CALM      29.73S
$$

...ELSEWHERE IN MINNESOTA...


CITY           SKY/WX    TMP DP  RH WIND       PRES   REMARKS
MINNEAPOLIS    CLOUDY    37  29  72 E5        29.73F WCI  33
INTNL FALLS    CLOUDY    21  17  84 NE6       29.88R WCI  13
DULUTH         LGT SNOW  29  26  89 E5        29.80S FOG     WCI  24
RED WING       CLOUDY    41  30  65 SE7       29.73F
REDWOOD FALLS  CLOUDY    34  29  82 NE8       29.70F WCI  27
MANKATO          N/A     36  31  82 E3        29.71F
WORTHINGTON    CLOUDY    30  28  92 NW3       29.65F
FAIRMONT       CLOUDY    32  29  88 E3        29.67F
$$

...SOUTHWEST WISCONSIN...


CITY           SKY/WX    TMP DP  RH WIND       PRES   REMARKS
LA CROSSE      CLOUDY    40  38  93 SE6       29.77S
PRAIRIE DU CHI CLOUDY    38  37  95 CALM      29.78F FOG
BOSCOBEL       CLOUDY    41  39  93 E3        29.79F FOG
LONE ROCK      NOT AVBL
PLATTEVILLE    CLOUDY    40  40 100 E10       29.78F WCI  34
FORT MC COY    CLOUDY    40  39  95 SE8       29.81F
CAMP DOUGLAS   MIX PCPN  36  34  93 CALM      29.82F FOG
MAUSTON-NEW LI CLOUDY    35  34  97 CALM      29.82F FOG
VIROQUA        CLOUDY    38  37  97 E8        29.79F WCI  32
WIS DELLS      CLOUDY    37  36  96 E6        29.81F FOG     WCI  32
$$

...ELSEWHERE IN WISCONSIN...


CITY           SKY/WX    TMP DP  RH WIND       PRES   REMARKS
MILWAUKEE      LGT RAIN  42  39  89 SE14      29.89F FOG
MADISON        CLOUDY    42  40  92 MISG      29.81F
GREEN BAY      LGT RAIN  39  38  96 SE13      29.87F WCI  31
EAU CLAIRE     NOT AVBL
BLACK RVR FLS  CLOUDY    32  31  99 CALM      29.80S
MEDFORD        CLOUDY    34  29  82 SE6       29.80F WCI  29
WAUSAU         CLOUDY    33  30  88 E5        29.81F WCI  29
WIS RAPIDS     CLOUDY    38  36  92 SE7       29.83F WCI  33
MARSHFIELD     CLOUDY    37  32  82 SE6       29.79F WCI  32
RICE LAKE      MOCLDY    36  30  80 SE7       29.80S WCI  30
$$

...NORTHEAST IOWA...


CITY           SKY/WX    TMP DP  RH WIND       PRES   REMARKS
WATERLOO       CLOUDY    35  33  92 E7        29.70F WCI  29
DUBUQUE        CLOUDY    42  41  96 SE9       29.75F
DECORAH        CLOUDY    39  36  87 E10       29.74F WCI  32
MASON CITY     CLOUDY    38  34  85 E13       29.69F WCI  30
CHARLES CITY   CLOUDY    39  39 100 E13       29.71F WCI  32
OELWEIN        PTCLDY    39  37  93 E9        29.72F WCI  33
$$

...ELSEWHERE IN IOWA...


CITY           SKY/WX    TMP DP  RH WIND       PRES   REMARKS
DES MOINES     CLOUDY    50  41  71 SE7       29.66F
IOWA CITY      PTCLDY    50  46  86 S13       29.75F
FORT DODGE     CLOUDY    36  30  80 SE6       29.66F WCI  31
MARSHALLTOWN   CLOUDY    37  34  89 E8        29.67F WCI  31
CEDAR RAPIDS   CLEAR     45  42  89 S8        29.71F
$$

...NORTHERN ILLINOIS...


CITY           SKY/WX    TMP DP  RH WIND       PRES   REMARKS
CHICAGO-OHARE  CLOUDY    49  45  86 S16       29.85F
CHICAGO-MIDWAY CLOUDY    48  43  82 S15       29.88F
MOLINE         CLOUDY    52  48  86 S9        29.79F
ROCKFORD       CLOUDY    47  43  86 SE13      29.84F
PEORIA         CLOUDY    52  49  89 S14       29.84F
$$

NOTE: "FAIR" INDICATES FEW OR NO CLOUDS BELOW 12,000 FEET WITH NO
SIGNIFICANT WEATHER AND/OR OBSTRUCTIONS TO VISIBILITY. WIND
SPEEDS ARE IN MILES-PER-HOUR.




USA.gov is the U.S. government's official web portal to all federal, state and local government web resources and services.